Printer-friendly version

IAU Minor Planet Center

Minor Planet Center

MPEC 2010-E44 : 2008 FN6

The following Minor Planet Electronic Circular may be linked-to from your own Web pages, but must not otherwise be redistributed electronically.

A form allowing access to any MPEC is at the bottom of this page.


Read MPEC 2010-E43 Read MPEC 2010-E45


M.P.E.C. 2010-E44                                Issued 2010 Mar. 10, 23:32 UT

     The Minor Planet Electronic Circulars contain information on unusual
         minor planets and routine data on comets.  They are published
   on behalf of Commission 20 of the International Astronomical Union by the
          Minor Planet Center, Smithsonian Astrophysical Observatory,
                          Cambridge, MA 02138, U.S.A.

             Prepared using the Tamkin Foundation Computer Network

                              MPC@CFA.HARVARD.EDU
       URL http://www.minorplanetcenter.org/iau/mpc.html  ISSN 1523-6714

                                   2008 FN6

                           Revision to MPEC 2008-G63

Additional Observations:
     K08F06N  C2010 03 08.19872711 13 51.60 +37 17 29.0          22.6 V EE044H21
     K08F06N  C2010 03 08.21408311 13 49.57 +37 17 35.5          22.8 V EE044H21
     K08F06N  C2010 03 08.22985111 13 47.50 +37 17 42.3          22.7 V EE044H21
     K08F06N  C2010 03 09.15742411 11 51.44 +37 24 00.9          22.0 V EE044H21
     K08F06N  C2010 03 09.17665911 11 48.92 +37 24 08.9          22.2 V EE044H21
     K08F06N  C2010 03 09.19589411 11 46.44 +37 24 16.7          22.1 V EE044H21

Observer details:
H21 Astronomical Research Observatory, Westfield.  Observer R. Holmes.
    Measurers R. Holmes, H. Devore, S. Foglia.

First and last observations above in comparison with prediction:
Residuals in seconds of arc (or two decimals in degrees), reference and Delta-T
100308 H21 0.08+ 0.03-    100309 H21 0.08+ 0.03-    MPO140204   -0.092 day

Orbital elements:
2008 FN6                                                 Earth MOID = 0.1054 AU
Epoch 2010 Jan. 4.0 TT = JDT 2455200.5                  MPC
M 264.43487              (2000.0)            P               Q
n   0.46949539     Peri.  226.38728     -0.02863661     +0.98664493
a   1.6395141      Node    42.76857     -0.83558321     +0.06441417
e   0.3584186      Incl.   13.65888     -0.54861702     -0.14960813
P   2.10           H   21.2           G   0.15           U   1
Residuals in seconds of arc
080330 A44  0.2-  0.5+    080424 198  0.0   0.3+    080502 204  0.0   0.1-
080330 A44  0.1-  0.4+    080424 198  0.0   0.4+    080502 204  0.1+  0.0
080331 A44  0.2-  0.2-    080424 198  0.0   0.4+    080502 204  0.2+  0.0
080331 A44  0.0   0.3+    080425 198  0.0   0.5+    080503 G96  0.1-  0.2+
080331 A44  0.2+  0.1-    080426 A78  0.8-  1.0-    080503 G96  0.2-  0.0
080407 703  1.4+  0.1+    080426 A78  0.5-  0.7-    080503 G96  0.5-  0.1-
080407 703  0.6-  0.8-    080426 A78  0.8-  0.3-    080503 G96  0.2-  0.1+
080407 703  0.1-  0.5-    080426 A78  0.1-  0.6-    080503 560  0.0   0.3+
080407 703  1.1-  0.1-    080426 113  0.1-  0.4+    080503 560  0.0   0.3+
080407 198  0.2+  0.1-    080426 113  0.3+  0.2+    080503 560  0.2+  0.0
080407 198  0.1+  0.3+    080426 113  0.1-  0.1-    080505 704  0.7+  0.0
080407 198  0.1-  0.5+    080426 B21  0.4-  0.7-    080505 704  0.3+  0.4+
080407 198  0.2-  0.8+    080426 B21  0.2-  0.9-    080505 704  0.5+  0.6+
080407 198  0.3-  0.8+    080426 B21  0.5-  0.7-    080505 704  0.2+  0.1+
080407 A44  0.0   0.3-    080426 B36  0.9-  0.8-    080505 704  0.1+  0.2+
080407 A44  0.4+  0.2+    080426 B36  0.8-  1.4-    080508 113  0.3-  0.2+
080407 A44  0.4+  0.0     080426 B36  0.7-  0.7-    080508 113  0.4-  0.1-
080410 A44  0.0   0.0     080427 G96  0.0   0.1-    080508 113  0.3-  0.1+
080410 A44  0.1-  0.2+    080427 G96  0.5-  0.2-    080508 A44  0.1-  0.3-
080411 A44  0.1+  0.0     080427 G96  0.4-  0.1-    080508 A44  0.1-  0.3+
080411 A44  0.3+  0.4+    080427 G96  0.2-  0.3-    080508 A44  0.1+  0.1-
080413 198  0.7+  0.2+    080429 A44  0.1+  0.1+    080509 113  0.3-  0.4+
080413 198  0.6+  0.1+    080429 A44  0.1+  0.1+    080509 113  0.2-  0.4+
080413 198  0.6+  0.1-    080429 A44  0.2+  0.0     080509 113  0.4-  0.3+
080413 198  0.4+  0.3-    080430 H51  0.2+  0.4-    080509 113  0.1-  0.3+
080413 A44  0.1-  0.1+    080430 H51  0.1-  0.6-    080509 113  0.3-  0.2+
080413 A44  0.3+  0.2-    080430 H51  0.3-  0.2-    080511 A44  0.1+  0.5+
080413 A44  0.1+  0.3+    080430 H51  0.2-  0.2-    080511 A44  0.1+  1.0+
080413 A44  0.0   0.1+    080430 H51  0.5-  0.1-    080511 A44  0.2+  0.2+
080416 703  0.9+  0.2-    080430 H51  0.1+  0.0     080530 807  0.2+  0.4-
080416 703  1.0-  0.1-    080430 H51  0.1+  0.2+    080530 807  0.1+  0.1-
080416 703  0.3+  1.1-    080430 H51  0.0   0.0     080530 807  1.0+  0.8-
080416 703  0.3-  0.1-    080430 H51  0.2-  0.1-    080531 807  0.2-  0.1-
080423 F85  0.4-  0.1+    080430 H51  0.3-  0.1+    080531 807  0.3-  0.1+
080423 F85  0.3+  0.1-    080430 704  0.4+  0.0     080531 807  0.2-  0.0
080423 F85  0.4+  0.2-    080430 704  0.3+  0.6-    080531 807  0.0   0.0
080424 704  0.2-  0.7+    080430 704  1.0+  0.1-    080531 807  0.3-  0.3-
080424 448  0.1-  0.0     080430 704  1.3+  1.4-    080531 807  0.2-  0.1+
080424 448  0.2+  0.1+    080430 704  0.7+  0.1+    080531 807  0.2-  0.1-
080424 704  1.0-  0.5+    080501 704  0.8+  0.3+    100308 H21  0.1+  0.6+
080424 448  0.5-  0.3-    080501 704  0.9+  0.2+    100308 H21  0.3-  0.3+
080424 704  0.4-  0.9+    080501 704  0.7+  0.4+    100308 H21  0.6-  0.2+
080424 704  0.1-  1.3+    080501 704  0.4+  0.7+    100309 H21  0.3+  0.1+
080424 703  0.2-  0.6-    080501 704  0.8+  0.4+    100309 H21  0.3+  0.3+
080424 703  0.5-  0.1-    080501 A44  0.3+  0.1-    100309 H21  0.9+  0.3+
080424 703  0.9-  0.0     080501 A44  0.3+  0.0
080424 703  0.0   1.2-    080501 A44  0.2+  0.2+

Ephemeris:
2008 FN6                 a,e,i = 1.64, 0.36, 14                  q = 1.0519
Date    TT    R. A. (2000) Decl.     Delta      r     Elong.  Phase     V
2010 03 05    11 20.34   +36 51.2    0.685    1.618   149.1    18.4    22.4
2010 03 07    11 16.33   +37 08.4    0.677    1.608   148.3    18.9    22.4
2010 03 09    11 12.18   +37 23.0    0.671    1.599   147.3    19.6    22.3
2010 03 11    11 07.93   +37 34.8    0.664    1.589   146.1    20.4    22.3
2010 03 13    11 03.62   +37 43.5    0.659    1.579   144.8    21.3    22.3
2010 03 15    10 59.27   +37 49.2    0.654    1.569   143.4    22.2    22.3
2010 03 17    10 54.92   +37 51.6    0.650    1.559   141.8    23.2    22.3
2010 03 19    10 50.61   +37 50.7    0.647    1.549   140.2    24.3    22.3
2010 03 21    10 46.36   +37 46.4    0.644    1.539   138.5    25.4    22.3
2010 03 23    10 42.23   +37 38.8    0.642    1.529   136.7    26.5    22.4
2010 03 25    10 38.23   +37 28.0    0.640    1.518   134.9    27.7    22.4

Timothy B. Spahr             (C) Copyright 2010 MPC           M.P.E.C. 2010-E44

Read MPEC 2010-E43 Read MPEC 2010-E45


MPEC number:

Enter an
MPEC number in one of the following forms:
  • 1997-B01 (the full form)
  • J97B01 (the packed version of the full form)
  • B01 (the abbreviated form)

Valid HTML 4.01!